RH
15 23 21 32 25 48 35 86 100 80 100 84 53 60 58 55 48 21 20 18 29 24 21 31 34 49 44 32 42 36 33 41 43 85 68 55 64 46 72 71 64 64 48 63 99 88 100 100 100
12 12 14 21 20 22 23 79 84 96 100 74 38 45 72 99 83 29 27 18 23 24 34 29 39 57 49 42 28 34 40 52 58 70 58 74 79 43 59 81 74 83 56 74 100 100 100 72 76
9 10 9 12 16 15 52 56 57 78 95 98 52 39 62 66 88 32 32 26 19 35 32 32 43 45 34 40 33 48 47 48 69 50 87 57 74 54 56 88 88 93 57 64 53 100 100 100 34
10 10 11 9 13 14 58 78 90 96 80 87 100 79 27 25 20 26 35 33 22 38 34 39 43 40 38 41 35 61 72 67 53 53 59 67 53 33 44 41 100 78 40 34 50 73 72 57 33
9 10 12 15 13 23 40 75 100 87 82 89 90 63 32 33 32 47 53 48 32 42 48 46 48 37 43 33 32 55 70 63 65 61 57 54 43 34 44 47 90 87 54 26 57 74 78 48 38
8 8 10 12 34 85 80 77 100 100 97 85 63 19 39 51 54 59 70 56 28 57 43 46 47 38 45 40 42 54 86 72 71 77 75 58 55 40 60 52 64 100 66 26 43 63 80 69 46
8 8 8 44 38 53 77 99 100 100 97 63 38 18 15 29 51 42 65 69 33 62 59 52 54 53 70 50 52 59 90 91 78 73 98 98 76 53 44 57 88 100 68 32 66 95 100 100 47
8 8 8 9 30 76 64 96 100 84 59 53 53 15 10 49 63 37 46 55 28 45 55 62 89 100 88 52 61 69 78 94 71 89 93 93 98 86 81 68 99 100 47 55 50 100 100 100 45
8 8 10 9 10 48 76 90 82 59 41 38 26 12 11 51 70 55 78 32 34 39 46 77 92 85 75 58 65 80 86 78 62 65 93 89 100 98 54 69 100 100 44 48 59 100 96 63 53
8 8 10 9 18 28 55 48 48 64 35 26 19 16 12 23 35 62 98 84 41 59 87 99 100 65 78 87 82 84 92 87 72 64 95 99 97 95 60 65 96 100 64 58 100 70 86 92 38
7 8 8 12 27 64 96 82 59 14 11 36 24 15 21 45 45 44 96 100 89 100 100 100 100 82 100 100 89 85 92 90 77 64 67 62 88 83 67 39 92 92 59 67 95 56 74 97 60
9 10 11 11 9 8 7 8 10 9 13 36 16 19 61 64 62 58 96 86 72 89 77 80 53 100 94 97 75 93 98 90 69 76 67 51 84 100 95 58 100 46 76 100 90 95 81 89 76
15 12 13 12 14 9 8 9 11 13 10 12 39 33 46 72 100 94 100 97 99 80 100 87 88 100 94 81 78 90 95 96 71 59 44 48 63 62 73 73 53 53 51 72 96 88 77 79 86
13 13 14 14 17 15 11 11 12 17 12 26 55 57 77 89 73 94 100 93 92 98 78 88 40 92 100 98 99 100 100 98 82 73 45 50 47 51 55 64 42 56 58 51 94 67 92 68 95
11 10 11 13 16 14 16 15 14 14 20 38 66 67 100 83 87 76 82 100 95 100 100 100 95 100 94 100 100 100 100 82 99 85 48 52 50 52 64 67 46 64 60 60 81 100 72 90 84
13 13 10 10 12 15 17 19 22 14 17 39 60 78 90 100 96 100 82 97 99 100 100 100 64 87 100 100 98 100 100 98 100 87 62 58 98 65 71 62 44 48 53 84 95 69 70 84 100
11 13 14 12 10 11 13 19 20 18 14 20 48 73 62 81 84 100 100 96 90 100 100 100 100 100 82 100 100 96 100 100 99 81 94 100 94 78 65 52 47 40 59 64 90 86 83 85 93
9 10 12 13 13 12 10 11 17 18 19 17 20 40 46 100 95 79 79 69 55 88 74 79 86 82 92 100 100 100 100 100 97 84 100 81 66 100 82 53 54 60 80 100 98 80 98 94 96
9 8 9 12 14 14 13 11 11 15 19 24 21 24 30 91 100 47 39 46 31 23 42 56 100 97 100 100 96 97 100 100 100 64 94 96 74 79 67 52 70 67 59 84 45 44 81 81 26
13 12 9 9 10 13 13 13 12 11 13 17 22 23 24 43 58 77 18 13 12 11 12 18 30 29 53 27 61 100 100 100 99 43 90 100 96 63 54 42 45 38 38 54 57 43 78 70 77
14 13 13 11 9 9 12 13 13 12 12 19 52 43 22 22 22 23 16 13 12 13 14 11 15 18 12 41 77 100 100 37 11 38 100 100 93 78 63 23 20 20 24 51 49 57 92 89 73
15 14 12 11 12 10 9 12 12 22 44 48 33 36 21 19 21 18 14 13 14 22 18 12 9 9 14 57 100 100 37 12 20 52 88 100 100 64 45 50 41 35 57 68 53 35 51 89 100
15 12 13 12 12 12 10 10 13 21 45 52 56 43 48 17 18 18 12 11 18 49 34 15 12 17 33 21 87 64 11 38 71 100 94 100 89 51 50 32 41 48 64 100 61 60 62 73 97
17 17 14 13 13 11 12 11 12 18 34 37 50 46 69 70 61 32 11 31 56 45 35 22 18 30 27 21 10 12 33 71 86 100 82 88 98 66 37 33 40 42 63 96 69 62 86 97 64
18 17 16 13 12 13 11 12 12 13 16 15 26 36 43 46 59 43 15 19 40 44 30 31 23 34 46 9 11 22 44 43 59 100 100 100 100 96 71 49 57 56 64 72 91 84 80 100 84
19 17 16 16 14 13 15 14 13 12 12 13 14 17 27 15 20 23 14 27 50 49 32 41 63 55 23 17 17 54 86 53 64 100 90 93 100 100 85 56 49 56 59 43 79 97 47 64 65
19 19 18 16 15 15 15 14 12 14 13 12 11 16 23 15 16 15 14 26 68 64 66 77 51 35 21 27 53 68 63 78 56 83 90 90 100 100 93 92 45 56 57 56 90 66 61 61 51
19 16 16 17 18 17 15 14 13 15 16 16 12 12 24 24 24 15 28 39 37 59 64 33 19 25 72 58 59 49 94 100 94 100 100 90 98 100 100 80 92 72 62 100 68 62 68 67 58
21 18 19 16 19 17 15 13 13 15 20 38 42 28 51 45 49 35 38 42 32 69 41 39 36 100 100 100 84 78 64 71 78 88 100 96 63 53 59 44 66 89 99 100 90 76 49 51 60
20 21 20 16 20 17 17 14 14 18 20 28 62 89 91 58 36 39 40 54 94 91 25 79 74 70 78 78 80 92 72 85 70 100 100 98 82 55 61 55 92 100 100 100 100 98 83 95 54
Wind_Speed
12 11 7 9 6 7 13 6 2 11 12 17 11 12 16 15 17 19 17 16 14 16 16 18 23 23 25 29 25 21 17 15 13 10 8 7 9 14 14 20 16 22 20 19 18 21 21 15 14
19 17 19 15 11 12 13 6 6 15 23 14 11 11 14 18 16 20 17 18 17 16 15 19 22 24 25 24 21 23 19 16 17 9 7 5 8 15 14 17 13 20 20 24 15 19 20 17 17
22 22 20 22 17 17 16 12 15 17 18 16 14 13 15 17 17 21 19 18 18 13 13 20 22 23 25 18 20 25 21 16 18 14 13 6 9 9 12 19 14 20 20 21 19 19 22 17 19
22 25 22 22 19 22 18 12 11 17 14 18 21 13 16 20 22 21 18 15 16 11 13 18 21 21 22 17 21 24 24 18 18 15 16 7 8 11 13 17 12 18 21 22 20 19 19 16 16
25 25 23 23 22 21 22 20 18 13 12 13 13 21 20 20 22 17 16 15 13 9 15 20 23 22 22 22 20 22 19 19 19 18 15 10 9 13 17 18 20 15 20 21 21 16 19 15 15
29 26 24 25 22 15 20 22 20 22 19 19 23 21 16 15 17 16 18 14 12 8 14 18 23 21 20 17 21 19 21 20 24 19 15 11 13 16 16 21 19 14 18 20 21 21 19 18 16
34 27 26 26 27 26 16 27 31 30 23 25 24 22 17 14 11 9 14 14 16 10 13 18 21 21 19 16 18 19 20 21 27 21 12 12 13 17 17 19 19 20 16 18 20 22 16 14 23
38 32 27 30 33 26 23 22 27 26 23 24 24 25 17 8 10 10 12 11 12 10 15 18 20 22 16 18 18 19 20 22 28 22 19 14 14 15 16 16 17 15 12 14 15 24 22 16 17
36 33 28 30 32 33 31 33 31 26 22 30 27 27 22 15 12 10 13 11 14 14 15 18 21 16 14 17 16 23 19 21 27 28 20 14 12 7 12 14 15 13 8 11 9 16 16 14 8
35 29 30 32 29 30 32 34 31 27 27 26 28 25 25 21 10 11 15 15 11 17 20 15 21 14 12 17 15 22 16 21 31 30 26 15 11 10 10 10 14 13 4 8 11 9 15 15 17
38 35 31 31 32 31 31 33 33 27 24 26 27 27 23 22 11 11 11 16 21 25 23 21 20 10 16 15 14 18 18 31 30 30 26 19 10 10 6 5 13 3 2 7 7 8 12 11 13
32 32 33 34 34 37 34 31 32 29 26 29 30 28 25 18 10 14 14 13 19 21 9 11 14 14 23 19 22 16 21 31 35 31 28 18 6 5 6 3 6 6 2 9 10 10 16 12 13
31 32 31 32 34 35 33 32 33 31 28 25 30 29 23 21 10 15 15 12 15 20 13 6 5 17 26 27 24 18 23 29 33 28 25 15 11 6 2 2 3 9 4 6 8 12 7 13 14
36 35 32 30 30 31 29 29 31 29 26 23 29 30 25 20 16 20 10 13 10 15 15 13 15 13 21 26 20 17 21 28 30 25 19 9 12 9 3 3 4 10 4 4 8 6 6 10 12
42 39 36 34 33 30 27 27 30 31 28 27 28 29 25 24 23 20 22 19 12 9 11 17 21 17 19 20 19 20 22 28 27 26 19 9 8 11 3 5 3 10 5 6 7 2 4 7 8
47 44 41 38 36 34 29 28 31 31 29 28 29 29 23 21 21 16 22 27 21 11 12 10 7 10 15 25 25 19 24 27 26 24 22 9 7 11 1 5 11 7 5 6 4 2 2 4 5
49 47 48 45 40 37 34 32 31 31 30 31 30 30 25 23 22 22 20 22 19 14 13 8 14 6 20 26 24 29 23 30 29 23 12 11 6 8 12 10 8 6 6 5 5 1 1 3 3
48 52 51 48 45 42 38 37 35 32 31 34 31 30 24 22 22 21 20 17 18 20 23 17 17 23 27 24 27 31 22 21 28 17 10 15 10 7 8 11 8 7 6 5 2 3 2 6 4
40 44 49 53 51 48 44 40 37 35 32 33 33 32 34 30 26 17 19 19 20 21 23 22 22 26 29 27 31 24 24 24 25 22 19 15 13 3 6 9 11 7 7 7 4 5 6 2 3
39 38 40 46 53 51 50 45 41 37 36 35 32 35 33 34 30 27 25 23 22 23 24 25 27 26 26 29 23 23 27 29 31 23 13 14 12 9 6 6 10 11 9 10 9 7 4 3 2
40 38 39 41 42 48 53 50 46 41 39 37 33 32 33 34 32 29 27 25 25 25 25 24 24 23 24 23 22 24 30 35 30 14 12 13 13 9 8 6 7 6 7 9 12 6 4 5 5
39 38 39 40 39 40 47 52 48 43 43 40 39 34 33 35 33 28 28 28 26 24 22 22 21 24 25 22 26 33 34 29 18 17 6 17 12 12 9 8 5 6 4 3 7 12 14 13 5
35 35 38 39 41 39 40 48 52 46 42 41 40 39 34 33 32 28 27 25 24 23 24 22 22 22 23 27 30 37 28 10 6 10 11 17 15 11 10 9 7 6 9 8 9 9 8 11 11
32 32 35 40 42 41 39 42 49 52 50 42 42 39 30 28 28 26 25 20 18 18 18 20 19 24 24 26 27 19 7 3 5 10 13 11 15 17 13 11 11 13 13 15 12 14 13 12 13
35 35 34 35 39 41 41 40 46 51 51 50 46 41 40 35 29 24 25 26 24 20 20 23 28 27 26 27 18 11 8 2 4 13 21 17 20 18 14 14 16 17 17 16 15 16 15 17 12
36 33 34 34 34 35 37 40 46 43 48 52 48 44 39 36 34 31 29 27 26 29 28 24 21 27 30 23 14 9 10 7 4 6 11 14 24 23 22 18 20 19 17 19 14 17 16 13 14
36 35 34 33 31 33 38 45 41 41 43 46 47 42 39 38 31 31 28 26 31 27 20 22 26 28 22 14 11 10 6 8 9 5 3 8 13 22 26 27 21 17 17 18 15 14 14 12 12
36 33 33 33 31 33 42 41 42 38 40 39 40 37 33 29 24 22 22 21 15 13 20 23 21 18 11 10 4 2 4 8 11 11 13 18 16 15 14 18 17 15 17 19 14 15 18 18 17
35 32 33 33 31 34 36 36 38 39 38 37 34 28 23 19 19 17 9 3 3 15 17 17 15 7 5 7 10 12 11 9 13 16 18 17 17 20 20 18 12 15 20 23 19 17 18 18 18
34 32 34 34 33 31 29 33 37 40 40 38 33 29 25 24 24 15 9 7 3 9 7 9 13 12 9 9 11 14 13 15 16 22 22 21 19 19 20 20 18 24 24 22 21 20 21 20 18
Wind_Direction
242 235 253 265 283 286 320 287 224 297 268 306 300 306 337 334 327 346 345 346 331 353 0 3 2 355 350 357 359 357 351 354 348 357 355 10 9 352 346 8 14 22 18 11 21 19 11 15 18
245 240 245 252 274 287 303 254 130 288 290 284 293 317 314 316 317 342 341 339 337 355 11 3 357 352 352 2 6 358 358 360 349 345 1 340 330 6 21 12 11 16 20 22 33 15 31 34 25
260 256 250 250 247 271 294 260 283 273 261 274 296 300 308 311 308 323 337 338 344 2 11 3 356 354 360 3 2 4 3 355 348 341 339 353 343 0 12 8 21 18 26 22 24 24 33 30 28
257 262 257 259 260 263 264 275 299 251 247 269 290 295 302 312 312 323 325 336 346 356 1 356 355 352 356 355 4 4 360 360 359 344 339 352 355 358 354 355 15 19 23 24 27 31 39 29 35
254 251 248 255 250 252 256 248 252 244 272 286 275 305 314 316 314 332 314 329 346 348 346 355 347 350 353 357 352 0 6 6 357 342 341 342 350 343 6 355 355 22 26 26 25 37 27 42 45
250 246 242 245 243 242 252 246 227 265 271 266 273 288 300 309 319 325 312 329 326 315 335 348 348 349 344 354 355 353 2 3 358 352 333 331 335 342 342 351 345 10 12 23 14 28 43 39 47
250 243 245 230 242 257 242 233 244 264 278 280 288 292 292 293 315 338 307 317 336 330 333 346 346 342 333 346 7 4 2 0 358 357 340 311 321 332 344 348 340 336 9 23 28 41 45 54 41
255 248 241 237 232 227 226 234 239 259 273 268 278 290 290 272 299 334 321 325 336 322 330 331 333 337 330 336 7 13 0 1 1 358 1 325 312 326 331 338 328 350 359 19 46 44 57 66 47
251 252 233 236 236 232 232 236 246 255 263 273 276 274 271 255 271 302 310 324 309 302 313 329 329 334 327 344 2 13 12 4 2 355 346 339 301 312 327 327 322 334 353 20 44 39 53 23 13
248 248 243 251 247 242 234 241 250 255 268 260 264 266 269 264 251 278 290 300 303 307 306 342 339 324 322 338 348 7 7 0 1 5 348 331 302 287 314 339 317 325 351 12 32 45 47 48 40
244 245 242 238 242 238 240 250 259 261 261 253 258 263 263 267 261 269 283 305 309 323 317 354 338 311 354 339 340 6 13 6 3 2 354 341 323 315 6 15 324 337 21 26 71 58 59 66 45
240 240 243 245 241 245 247 250 255 257 253 254 250 246 240 243 268 286 303 317 332 323 323 325 333 356 343 349 343 357 2 9 6 4 357 356 355 296 291 341 297 136 94 75 80 86 81 75 48
242 241 242 246 254 247 249 249 251 249 249 247 241 245 238 231 272 265 287 286 284 298 304 289 14 329 330 331 337 336 354 9 10 6 4 18 0 357 298 111 170 143 130 104 87 112 63 44 47
241 242 244 250 249 258 254 250 252 253 253 242 240 240 240 236 246 247 267 262 299 306 294 243 276 312 304 321 339 321 349 354 4 359 6 20 14 9 6 161 185 163 136 130 109 118 86 53 53
240 242 242 243 248 249 253 257 254 250 247 233 229 246 258 249 255 256 261 242 285 297 282 268 275 280 310 305 326 312 318 339 354 349 1 344 15 5 70 177 165 166 161 154 124 125 30 24 5
242 244 243 240 241 245 247 250 253 253 245 239 238 244 252 259 267 262 271 255 267 268 259 292 332 291 287 312 320 311 312 331 347 346 350 347 20 18 15 166 153 159 171 150 142 51 78 37 63
244 242 242 241 238 241 242 246 253 254 250 245 239 243 253 250 260 257 267 253 269 247 273 222 280 228 262 277 291 308 309 319 338 344 350 288 274 6 354 176 152 172 165 164 157 299 351 94 275
245 245 243 244 243 240 240 240 243 251 253 250 246 240 246 265 267 260 262 281 277 261 278 281 248 247 263 278 273 302 309 313 348 349 333 301 302 354 328 199 188 181 153 172 216 284 14 31 344
246 246 244 242 242 243 244 242 241 245 248 252 252 250 245 249 263 277 278 276 274 266 274 276 247 258 268 270 265 285 286 310 332 334 316 294 290 293 334 172 181 189 199 209 270 300 323 234 301
249 249 249 244 242 241 244 244 241 241 245 248 249 246 247 253 269 268 276 275 274 277 271 272 269 273 271 281 272 275 289 296 304 313 307 278 286 283 306 189 204 210 212 239 269 286 283 187 302
250 244 246 248 244 239 241 242 241 242 247 251 254 255 260 262 269 272 276 275 280 278 269 270 271 278 282 279 276 270 283 297 299 277 270 244 267 258 243 203 205 215 242 259 268 278 268 292 268
250 248 248 242 242 244 241 241 241 239 244 250 255 255 256 259 261 270 273 279 284 284 279 276 283 288 292 286 258 278 299 296 281 223 265 228 245 244 244 215 217 212 218 271 267 257 268 281 275
250 250 247 249 245 240 241 240 242 237 238 242 249 252 256 260 264 266 276 281 279 283 287 288 291 296 294 289 272 284 288 294 215 226 236 228 237 236 247 211 219 234 264 297 275 274 289 282 269
249 249 247 243 244 241 236 242 240 238 238 238 247 251 255 258 266 267 270 271 266 273 283 296 298 306 303 295 283 277 272 305 278 249 252 242 244 236 240 246 258 260 279 280 278 275 287 285 270
249 249 249 249 244 242 239 237 241 236 238 239 238 243 251 256 262 267 274 269 258 278 287 283 291 301 301 298 290 282 300 271 277 226 232 237 236 239 238 259 259 259 269 279 283 289 289 285 277
251 250 250 247 245 237 239 237 238 240 236 240 240 243 247 254 258 264 268 270 276 278 284 298 305 309 308 306 296 285 279 262 262 230 240 233 243 236 242 253 264 262 267 276 287 291 292 284 272
245 244 246 249 245 239 231 233 231 235 238 237 238 240 245 249 253 257 262 265 271 280 280 298 306 305 307 302 294 281 256 245 256 238 210 247 255 238 245 253 246 254 273 267 279 283 284 296 288
245 246 243 240 238 236 233 229 230 228 232 236 239 238 240 250 243 249 250 262 258 275 296 298 297 302 299 278 231 271 1 240 229 227 218 234 235 236 253 243 251 258 254 261 262 282 285 289 283
245 245 245 242 238 237 239 230 227 223 225 222 231 228 216 221 223 195 159 174 346 319 301 295 292 275 296 293 286 300 298 276 249 240 242 249 245 249 252 260 262 285 284 264 265 267 273 282 282
240 242 243 235 233 233 238 235 222 218 220 223 222 217 222 201 189 180 196 176 160 309 300 285 305 280 249 299 304 292 285 273 273 241 246 248 252 258 259 258 254 256 259 268 262 260 263 275 271